[[{"header":{"parameterUnit":"m.s-1","parameterCategory":1,"la1":30.2991,"la2":30.254,"lo1":-89.0895,"lo2":-89.0444,"dy":0.0017,"dx":0.0017,"nx":28,"ny":28,"refTime":"2025-04-10T21:00:00:Z","depth":0,"parameterNumber":2,"parameterNumberName":"U-component_of_WINDS"},"data":[0,0,0,0,0,0,0,0,0,0,0,0,0,0,0,0,0,0,0,0,0,0,0,0,0,0,0,0,0,0,0,0,0,0,0,0,0,0,0,0,0,0,0,0,0,0,0,0,0,0,0,0,0,0,0,0,0,0,3.3601,3.3603,0,3.3832,3.3835,3.3837,3.3859,3.3856,3.3854,3.3851,3.4095,3.4104,3.4112,0,0,0,0,0,0,0,0,0,0,0,0,0,3.3185,3.3193,3.3601,3.3604,3.3606,3.3832,3.3835,3.3838,3.3859,3.3856,3.3853,3.385,3.4092,3.4103,3.4113,0,0,0,0,0,0,0,0,0,0,0,0,0,3.3386,3.3195,3.36,3.3644,3.365,3.3831,3.3835,3.3839,3.386,3.3856,3.3852,3.3849,3.4089,3.4102,3.4115,3.427,0,0,3.4155,3.4161,0,0,0,0,0,0,0,0,3.3375,3.3401,3.3635,3.3641,3.3649,3.3813,3.3778,3.3984,3.3861,3.378,3.3851,3.3847,3.4005,3.4024,3.4076,3.4281,3.4292,3.4156,3.4164,3.417,3.4173,0,0,0,0,0,0,0,3.3361,3.3392,3.3692,3.3638,3.3647,3.3655,3.3679,3.3817,3.3911,3.3787,3.3789,3.3816,3.4008,3.4063,3.4082,3.4295,3.4156,3.4167,3.4175,3.4181,3.4643,3.4647,0,0,0,0,0,0,3.3338,3.338,3.3685,3.3699,3.35,3.3665,3.3693,3.3764,3.3909,3.3928,3.3819,3.3816,3.4043,3.4067,3.4091,3.4284,3.417,3.4182,3.4189,3.4638,3.4644,3.4648,0,0,0,0,0,0,3.3329,3.3365,3.3676,3.354,3.358,3.3676,3.3756,3.377,3.3826,3.3933,3.395,3.3858,3.4041,3.4072,3.4225,3.4293,3.4188,3.42,3.4633,3.464,3.4646,3.467,0,0,0,0,0,0,3.3317,3.3361,3.3419,3.3541,3.3588,3.3804,3.376,3.3777,3.3848,3.3846,3.3974,3.3992,3.404,3.4206,3.4238,3.4309,3.421,3.4628,3.4636,3.4644,3.4664,3.4677,3.4688,0,0,0,0,0,3.3302,3.3417,3.3422,3.3459,3.3661,3.3808,3.3834,3.3886,3.3853,3.3914,3.3983,3.3988,3.428,3.4221,3.4258,3.4334,3.4624,3.4634,3.4643,3.4658,3.4674,3.4687,0,0,0,0,0,0,3.3302,3.3434,3.344,3.3599,3.3692,3.3811,3.3888,3.39,3.4006,3.4001,3.4062,3.4091,3.4242,3.4303,3.4235,3.4493,3.4449,3.4466,3.4447,3.4463,3.4475,3.4458,3.4221,0,0,0,0,0,3.332,3.3426,3.3536,3.3665,3.3711,3.3792,3.3858,3.3889,3.3989,3.4029,3.4109,3.4208,3.4322,3.4396,3.4507,3.4673,3.4703,3.4743,3.4755,3.4764,3.4779,3.4875,3.4895,3.4681,3.4681,3.468,0,0,3.336,3.3445,3.3508,3.3668,3.3743,3.3854,3.3825,3.3942,3.4026,3.4047,3.4197,3.4259,3.4374,3.4535,3.461,3.459,3.4845,3.4777,3.4783,3.4794,3.4887,3.4907,3.4925,3.4687,3.4686,3.4685,0,0,3.3488,3.3561,3.3678,3.3755,3.3869,3.3922,3.395,3.4069,3.4111,3.4261,3.428,3.4382,3.4576,3.4658,3.4725,3.4887,3.4897,3.4921,3.4984,3.5076,3.5093,3.5109,3.5169,3.5189,3.4936,3.4936,3.4936,0,3.3523,3.3687,3.3737,3.3855,3.3926,3.3949,3.407,3.4142,3.4288,3.4338,3.4314,3.456,3.4638,3.482,3.4859,3.4912,3.4949,3.4907,3.5086,3.5102,3.5117,3.5175,3.5197,3.4938,3.4938,3.4938,3.4937,0,3.3726,3.384,3.3921,3.406,3.414,3.4259,3.4329,3.4405,3.443,3.4487,3.4642,3.4737,3.4869,3.4914,3.494,3.5101,3.5085,3.5073,3.503,3.5139,3.5195,3.5217,3.4941,3.4941,3.494,3.4939,0,0,3.386,3.4025,3.4054,3.4119,3.4248,3.4339,3.446,3.4587,3.4652,3.4753,3.4858,3.5023,3.5013,3.5089,3.5125,3.5205,3.533,3.5184,3.5188,3.5209,3.5517,3.5526,3.555,3.5337,3.5342,3.5345,3.5508,0,3.4004,3.4217,3.4267,3.4451,3.456,3.4584,3.469,3.4783,3.4839,3.4942,3.5005,3.5122,3.5099,3.5145,3.5226,3.5298,3.5393,3.5287,3.5439,3.5444,3.541,3.5579,3.5589,3.5737,3.5529,3.5533,3.5536,0,3.42,3.4303,3.4498,3.4615,3.4663,3.4756,3.4878,3.4975,3.5082,3.5118,3.5203,3.5231,3.5362,3.5311,3.5494,3.542,3.5486,3.5531,3.5538,3.5555,3.5497,3.5603,3.5785,3.5808,3.557,3.5567,3.5565,0,3.428,3.4469,3.461,3.4664,3.4804,3.487,3.4932,3.5035,3.5109,3.5216,3.5266,3.5387,3.5455,3.555,3.5612,3.5569,3.579,3.5744,3.5826,3.5825,3.5873,3.5869,3.607,3.5912,3.5912,3.5911,3.5911,0,3.4436,3.4555,3.4648,3.4736,3.4871,3.4928,3.5061,3.5124,3.5216,3.5318,3.5347,3.5443,3.5518,3.5625,3.5674,3.582,3.5849,3.5884,3.5896,3.5883,3.5878,3.5927,3.5919,3.5917,3.5916,3.5915,3.5914,0,3.4549,3.4616,3.4772,3.4892,3.4925,3.5019,3.5123,3.5211,3.5269,3.5398,3.5432,3.5524,3.5652,3.5722,3.5883,3.5917,3.6079,3.6085,3.6043,3.6048,3.6127,3.6119,3.6368,3.6405,3.622,3.6222,3.6223,0,3.4645,3.4737,3.4866,3.4936,3.4998,3.511,3.5186,3.5247,3.5325,3.5455,3.5528,3.5657,3.5764,3.5968,3.6051,3.6175,3.6185,3.6264,3.6204,3.6188,3.6189,3.6183,3.6194,3.6274,3.6276,3.6277,3.6278,0,3.4808,3.4837,3.4944,3.5063,3.5152,3.525,3.5347,3.5403,3.5481,3.5568,3.5698,3.5781,3.5945,3.6074,3.6205,3.6272,3.629,3.6296,3.6322,3.631,3.6282,3.6301,3.6073,3.6291,3.6289,3.6289,3.6288,3.6287,3.4917,3.5001,3.5105,3.5224,3.5303,3.5394,3.5482,3.5551,3.566,3.5797,3.5828,3.5966,3.6074,3.6252,3.6322,3.6433,3.6419,3.6456,3.6466,3.6474,3.6478,3.6263,3.6457,3.6457,3.6457,3.6457,3.6457,0,3.5084,3.5152,3.5261,3.5395,3.549,3.5496,3.5604,3.5683,3.5804,3.5902,3.6006,3.6158,3.6284,3.6377,3.6507,3.6578,3.659,3.661,3.6606,3.6622,3.6483,3.6448,3.6599,3.6599,3.6599,3.6599,3.6598,3.6598,3.5181,3.5324,3.5366,3.555,3.5619,3.5753,3.5815,3.5899,3.5978,3.6145,3.6249,3.6309,3.6406,3.6543,3.6661,3.6685,3.6733,3.6752,3.6778,3.6647,3.6632,3.6617,3.6585,3.6762,3.6762,3.6909,3.691,3.6911]},{"header":{"parameterUnit":"m.s-1","parameterCategory":1,"la1":30.2991,"la2":30.254,"lo1":-89.0895,"lo2":-89.0444,"dy":0.0017,"dx":0.0017,"nx":28,"ny":28,"refTime":"2025-04-10T21:00:00:Z","depth":0,"parameterNumber":3,"parameterNumberName":"V-component_of_WINDS"},"data":[0,0,0,0,0,0,0,0,0,0,0,0,0,0,0,0,0,0,0,0,0,0,0,0,0,0,0,0,0,0,0,0,0,0,0,0,0,0,0,0,0,0,0,0,0,0,0,0,0,0,0,0,0,0,0,0,0,0,3.5394,3.5397,0,3.5691,3.5694,3.5698,3.5745,3.5743,3.574,3.5738,3.6043,3.6053,3.6064,0,0,0,0,0,0,0,0,0,0,0,0,0,3.4869,3.4878,3.5393,3.5397,3.5401,3.569,3.5695,3.5699,3.5746,3.5743,3.5739,3.5736,3.604,3.6052,3.6065,0,0,0,0,0,0,0,0,0,0,0,0,0,3.5124,3.4881,3.5393,3.5459,3.5468,3.569,3.5695,3.57,3.5746,3.5743,3.5739,3.5735,3.6035,3.6051,3.6066,3.6242,0,0,3.6115,3.6122,0,0,0,0,0,0,0,0,3.511,3.5144,3.5446,3.5455,3.5466,3.5677,3.5622,3.5882,3.5747,3.5641,3.5738,3.5733,3.5924,3.5949,3.6014,3.6257,3.627,3.6116,3.6126,3.6133,3.6137,0,0,0,0,0,0,0,3.5092,3.5131,3.5511,3.545,3.5462,3.5475,3.5507,3.5671,3.5801,3.565,3.5654,3.5689,3.5929,3.5998,3.6021,3.6274,3.6116,3.613,3.614,3.6146,3.6679,3.6684,0,0,0,0,0,0,3.5062,3.5116,3.5502,3.552,3.5274,3.5488,3.5524,3.5613,3.5799,3.5824,3.5692,3.569,3.5973,3.6003,3.6032,3.6253,3.6133,3.6147,3.6156,3.6675,3.6681,3.6686,0,0,0,0,0,0,3.5051,3.5096,3.549,3.532,3.5371,3.5501,3.5601,3.5621,3.569,3.5831,3.5854,3.5738,3.5971,3.601,3.619,3.6264,3.6155,3.6169,3.6669,3.6677,3.6683,3.6694,0,0,0,0,0,0,3.5035,3.5092,3.5159,3.5321,3.5379,3.5643,3.5606,3.563,3.5717,3.5718,3.5881,3.5904,3.5971,3.6166,3.6206,3.6284,3.6181,3.6663,3.6673,3.6681,3.6688,3.67,3.6711,0,0,0,0,0,3.5017,3.515,3.5163,3.5209,3.5467,3.5647,3.5681,3.5755,3.5723,3.5793,3.5883,3.5899,3.6249,3.6185,3.623,3.6313,3.6659,3.667,3.668,3.6682,3.6698,3.6711,0,0,0,0,0,0,3.4995,3.5173,3.5188,3.5378,3.5497,3.5654,3.5745,3.5768,3.5899,3.5894,3.598,3.6017,3.6193,3.6271,3.6196,3.6494,3.6452,3.6472,3.6438,3.6454,3.6465,3.6444,3.6194,0,0,0,0,0,3.5011,3.5142,3.5291,3.5444,3.5503,3.5613,3.5695,3.5741,3.5868,3.5919,3.6023,3.6145,3.6283,3.6372,3.6507,3.6698,3.6736,3.6778,3.679,3.6799,3.6816,3.6925,3.6946,3.672,3.672,3.672,0,0,3.5049,3.5162,3.5239,3.5443,3.554,3.5675,3.5656,3.5798,3.59,3.5941,3.6118,3.6198,3.6341,3.6529,3.6616,3.6599,3.6886,3.6812,3.6818,3.6831,3.6938,3.696,3.6978,3.6727,3.6726,3.6725,0,0,3.5185,3.5283,3.5423,3.5521,3.5669,3.5742,3.5775,3.593,3.5985,3.6165,3.6199,3.632,3.6555,3.6657,3.6739,3.6915,3.6935,3.6956,3.7019,3.7125,3.7142,3.7159,3.7224,3.7246,3.6972,3.6972,3.6972,0,3.5213,3.5417,3.5491,3.5634,3.5723,3.5766,3.5909,3.6001,3.6186,3.6247,3.6224,3.6521,3.662,3.6833,3.6876,3.694,3.6983,3.6939,3.7134,3.7151,3.7167,3.7231,3.7255,3.6974,3.6973,3.6973,3.6973,0,3.5445,3.5585,3.568,3.5858,3.5958,3.6099,3.6197,3.6289,3.6327,3.6402,3.6585,3.6705,3.6866,3.6919,3.6957,3.7139,3.7123,3.7116,3.7075,3.7189,3.725,3.7275,3.6976,3.6976,3.6975,3.6975,0,0,3.5577,3.5794,3.5828,3.5911,3.6077,3.6188,3.6332,3.649,3.6568,3.6693,3.6818,3.7016,3.7011,3.7104,3.7154,3.7246,3.7381,3.7228,3.7233,3.7255,3.7591,3.7597,3.7624,3.7394,3.7399,3.7403,3.758,0,3.5735,3.5994,3.6066,3.6285,3.6418,3.646,3.6586,3.6703,3.6777,3.6901,3.6982,3.7123,3.7104,3.7161,3.7254,3.7345,3.745,3.7333,3.7513,3.7518,3.7479,3.7656,3.7663,3.7824,3.7604,3.7608,3.7611,0,3.5955,3.6086,3.6318,3.647,3.6528,3.664,3.6791,3.6908,3.7041,3.7089,3.7193,3.7235,3.7388,3.7337,3.755,3.7469,3.7547,3.7602,3.761,3.7632,3.7573,3.7685,3.7877,3.7902,3.7649,3.7646,3.7643,0,3.6032,3.6265,3.6436,3.6504,3.6684,3.6763,3.6841,3.6971,3.7061,3.7193,3.7253,3.74,3.7482,3.7595,3.7676,3.7631,3.7883,3.7838,3.7929,3.7927,3.7982,3.7978,3.8192,3.8027,3.8027,3.8026,3.8026,0,3.6203,3.6344,3.6473,3.6578,3.6738,3.6819,3.6975,3.7056,3.7171,3.7293,3.7338,3.7451,3.755,3.7677,3.7741,3.791,3.7945,3.7989,3.8005,3.7987,3.7982,3.8041,3.8033,3.8033,3.8032,3.803,3.8029,0,3.6316,3.6408,3.6597,3.6752,3.6795,3.6906,3.704,3.7144,3.7219,3.7373,3.7414,3.7533,3.7685,3.7776,3.7968,3.8011,3.8198,3.8208,3.8153,3.8161,3.8248,3.8239,3.851,3.855,3.8355,3.8357,3.8358,0,3.6421,3.6531,3.6698,3.6783,3.6863,3.6999,3.7092,3.7177,3.7272,3.7432,3.7518,3.7672,3.7801,3.8042,3.8146,3.8294,3.831,3.8394,3.8332,3.8311,3.8314,3.8308,3.8321,3.8405,3.8407,3.8408,3.8409,0,3.6597,3.6638,3.677,3.6919,3.7028,3.7149,3.7269,3.7337,3.7441,3.7546,3.7702,3.7802,3.7999,3.8153,3.831,3.8392,3.842,3.8428,3.8457,3.8441,3.8406,3.8429,3.8185,3.8422,3.842,3.842,3.8419,3.8418,3.6712,3.6813,3.6947,3.7093,3.7193,3.7304,3.7411,3.75,3.7631,3.7799,3.784,3.8005,3.8137,3.835,3.8436,3.8566,3.8553,3.8595,3.8606,3.8616,3.8619,3.8383,3.8595,3.8594,3.8594,3.8594,3.8594,0,3.6894,3.6982,3.7116,3.7283,3.7399,3.7413,3.7548,3.7644,3.7788,3.7909,3.8035,3.8215,3.8365,3.8481,3.8635,3.8717,3.8734,3.8755,3.8751,3.877,3.8621,3.8582,3.8739,3.8739,3.8739,3.8739,3.8739,3.8739,3.7002,3.7174,3.723,3.7452,3.754,3.7702,3.7778,3.7882,3.7979,3.8179,3.8304,3.8378,3.8497,3.866,3.8799,3.8829,3.8885,3.8905,3.8937,3.8796,3.8781,3.8766,3.8729,3.8915,3.8916,3.9077,3.9078,3.9079]}]]